This is the latest recevied weather packets stored in our database for station/object KC0UFP. If no packets are shown the sender has not sent any weather packets the latest 10 day(s).
| Time | Temp. | Humidity | Pressure | Rain* | Wind** | Luminosity | Snow |
|---|---|---|---|---|---|---|---|
| 1777713039 | 8.89° C | 85% | 1016.6 hPa | 0 mm | - | 0 W/m² | - |
| 1777712735 | 8.89° C | 84% | 1016.8 hPa | 0 mm | - | 0 W/m² | - |
| 1777712433 | 8.89° C | 84% | 1016.5 hPa | 0 mm | - | 0 W/m² | - |
| 1777712129 | 9.44° C | 84% | 1016.6 hPa | 0 mm | - | 0 W/m² | - |
| 1777711826 | 10° C | 82% | 1016.5 hPa | 0 mm | - | 0 W/m² | - |
| 1777711523 | 10° C | 81% | 1016.5 hPa | 0 mm | - | 0 W/m² | - |
| 1777711217 | 9.44° C | 83% | 1016.5 hPa | 0 mm | - | 0 W/m² | - |
| 1777710915 | 8.89° C | 84% | 1016.6 hPa | 0 mm | - | 0 W/m² | - |
| 1777710612 | 8.89° C | 86% | 1016.5 hPa | 0 mm | - | 0 W/m² | - |
| 1777710309 | 8.89° C | 85% | 1016.2 hPa | 0 mm | - | 0 W/m² | - |
| 1777710006 | 8.89° C | 85% | 1016.3 hPa | 0 mm | - | 0 W/m² | - |
| 1777709704 | 8.89° C | 85% | 1016.6 hPa | 0 mm | - | 0 W/m² | - |
| 1777709400 | 8.89° C | 85% | 1016.5 hPa | 0 mm | - | 0 W/m² | - |
| 1777709098 | 9.44° C | 86% | 1016.6 hPa | 0 mm | - | 0 W/m² | - |
| 1777708795 | 9.44° C | 86% | 1016.7 hPa | 0 mm | - | 0 W/m² | - |
| 1777708492 | 9.44° C | 87% | 1016.6 hPa | 0 mm | - | 0 W/m² | - |
| 1777708190 | 9.44° C | 86% | 1016.5 hPa | 0 mm | - | 0 W/m² | - |
| 1777707888 | 9.44° C | 85% | 1016.8 hPa | 0 mm | - | 0 W/m² | - |
| 1777707584 | 9.44° C | 84% | 1016.7 hPa | 0 mm | - | 0 W/m² | - |
| 1777707279 | 9.44° C | 80% | 1016.9 hPa | 0 mm | - | 0 W/m² | - |
| 1777706978 | 10° C | 76% | 1016.9 hPa | 0 mm | - | 0 W/m² | - |
| 1777706675 | 10.56° C | 74% | 1016.9 hPa | 0 mm | - | 0 W/m² | - |
| 1777706372 | 10.56° C | 74% | 1017.1 hPa | 0 mm | - | 0 W/m² | - |
| 1777706070 | 10.56° C | 73% | 1016.9 hPa | 0 mm | - | 0 W/m² | - |
| 1777705768 | 10.56° C | 71% | 1017.2 hPa | 0 mm | - | 0 W/m² | - |
* Rain latest hour (hover to see other rain measurements)
** Current wind speed in m/s (hover to see current wind gust speed)